Year,Month,Day,Hour,Minute,Value (Times are PST for temperature in C)
2023,04,27,00,00,8.30
2023,04,27,00,01,8.40
2023,04,27,00,02,8.30
2023,04,27,00,03,8.40
2023,04,27,00,04,8.40
2023,04,27,00,05,8.30
2023,04,27,00,06,8.30
2023,04,27,00,07,8.30
2023,04,27,00,08,8.30
2023,04,27,00,09,8.30
2023,04,27,00,10,8.30
2023,04,27,00,11,8.30
2023,04,27,00,12,8.30
2023,04,27,00,13,8.30
2023,04,27,00,14,8.20
2023,04,27,00,15,8.20
2023,04,27,00,16,8.20
2023,04,27,00,17,8.20
2023,04,27,00,18,8.20
2023,04,27,00,19,8.20
2023,04,27,00,20,8.20
2023,04,27,00,21,8.10
2023,04,27,00,22,8.10
2023,04,27,00,23,8.10
2023,04,27,00,24,8.10
2023,04,27,00,25,8.10
2023,04,27,00,26,8.10
2023,04,27,00,27,8.10
2023,04,27,00,28,8.10
2023,04,27,00,29,8.00
2023,04,27,00,30,8.00
2023,04,27,00,31,8.00
2023,04,27,00,32,8.00
2023,04,27,00,33,7.90
2023,04,27,00,34,7.90
2023,04,27,00,35,7.90
2023,04,27,00,36,7.90
2023,04,27,00,37,7.90
2023,04,27,00,38,7.90
2023,04,27,00,39,7.90
2023,04,27,00,40,7.90
2023,04,27,00,41,7.90
2023,04,27,00,42,7.90
2023,04,27,00,43,7.90
2023,04,27,00,44,7.90
2023,04,27,00,45,7.90
2023,04,27,00,46,7.80
2023,04,27,00,47,7.80
2023,04,27,00,48,7.80
2023,04,27,00,49,7.80
2023,04,27,00,50,7.80
2023,04,27,00,51,7.70
2023,04,27,00,52,7.70
2023,04,27,00,53,7.70
2023,04,27,00,54,7.70
2023,04,27,00,55,7.70
2023,04,27,00,56,7.70
2023,04,27,00,57,7.60
2023,04,27,00,58,7.60
2023,04,27,00,59,7.60
2023,04,27,01,00,7.60
2023,04,27,01,01,7.60
2023,04,27,01,02,7.60
2023,04,27,01,03,7.60
2023,04,27,01,04,7.50
2023,04,27,01,05,7.50
2023,04,27,01,06,7.50
2023,04,27,01,07,7.50
2023,04,27,01,08,7.50
2023,04,27,01,09,7.50
2023,04,27,01,10,7.50
2023,04,27,01,11,7.50
2023,04,27,01,12,7.50
2023,04,27,01,13,7.50
2023,04,27,01,14,7.50
2023,04,27,01,15,7.40
2023,04,27,01,16,7.40
2023,04,27,01,17,7.40
2023,04,27,01,18,7.40
2023,04,27,01,19,7.40
2023,04,27,01,20,7.40
2023,04,27,01,21,7.40
2023,04,27,01,22,7.40
2023,04,27,01,23,7.40
2023,04,27,01,24,7.40
2023,04,27,01,25,7.40
2023,04,27,01,26,7.40
2023,04,27,01,27,7.40
2023,04,27,01,28,7.40
2023,04,27,01,29,7.30
2023,04,27,01,30,7.30
2023,04,27,01,31,7.30
2023,04,27,01,32,7.30
2023,04,27,01,33,7.20
2023,04,27,01,34,7.20
2023,04,27,01,35,7.20
2023,04,27,01,36,7.20
2023,04,27,01,37,7.20
2023,04,27,01,38,7.20
2023,04,27,01,39,7.10
2023,04,27,01,40,7.10
2023,04,27,01,41,7.10
2023,04,27,01,42,7.10
2023,04,27,01,43,7.10
2023,04,27,01,44,7.10
2023,04,27,01,45,7.10
2023,04,27,01,46,7.10
2023,04,27,01,47,7.00
2023,04,27,01,48,7.00
2023,04,27,01,49,7.00
2023,04,27,01,50,7.00
2023,04,27,01,51,7.00
2023,04,27,01,52,7.00
2023,04,27,01,53,7.00
2023,04,27,01,54,7.10
2023,04,27,01,55,7.10
2023,04,27,01,56,7.10
2023,04,27,01,57,7.10
2023,04,27,01,58,7.10
2023,04,27,01,59,7.10
2023,04,27,02,00,7.10
2023,04,27,02,01,7.10
2023,04,27,02,02,7.00
2023,04,27,02,03,7.00
2023,04,27,02,04,7.00
2023,04,27,02,05,6.90
2023,04,27,02,06,6.90
2023,04,27,02,07,6.90
2023,04,27,02,08,6.90
2023,04,27,02,09,6.90
2023,04,27,02,10,6.90
2023,04,27,02,11,6.80
2023,04,27,02,12,6.80
2023,04,27,02,13,6.80
2023,04,27,02,14,6.80
2023,04,27,02,15,6.80
2023,04,27,02,16,6.80
2023,04,27,02,17,6.80
2023,04,27,02,18,6.80
2023,04,27,02,19,6.80
2023,04,27,02,20,6.80
2023,04,27,02,21,6.70
2023,04,27,02,22,6.70
2023,04,27,02,23,6.70
2023,04,27,02,24,6.70
2023,04,27,02,25,6.70
2023,04,27,02,26,6.70
2023,04,27,02,27,6.70
2023,04,27,02,28,6.70
2023,04,27,02,29,6.70
2023,04,27,02,30,6.70
2023,04,27,02,31,6.70
2023,04,27,02,32,6.70
2023,04,27,02,33,6.70
2023,04,27,02,34,6.70
2023,04,27,02,35,6.70
2023,04,27,02,36,6.80
2023,04,27,02,37,6.80
2023,04,27,02,38,6.80
2023,04,27,02,39,6.80
2023,04,27,02,40,6.80
2023,04,27,02,41,6.70
2023,04,27,02,42,6.70
2023,04,27,02,43,6.70
2023,04,27,02,44,6.70
2023,04,27,02,45,6.70
2023,04,27,02,46,6.70
2023,04,27,02,47,6.70
2023,04,27,02,48,6.70
2023,04,27,02,49,6.70
2023,04,27,02,50,6.70
2023,04,27,02,51,6.60
2023,04,27,02,52,6.60
2023,04,27,02,53,6.60
2023,04,27,02,54,6.60
2023,04,27,02,55,6.50
2023,04,27,02,56,6.50
2023,04,27,02,57,6.50
2023,04,27,02,58,6.40
2023,04,27,02,59,6.40
2023,04,27,03,00,6.40
2023,04,27,03,01,6.40
2023,04,27,03,02,6.40
2023,04,27,03,03,6.40
2023,04,27,03,04,6.30
2023,04,27,03,05,6.30
2023,04,27,03,06,6.30
2023,04,27,03,07,6.30
2023,04,27,03,08,6.30
2023,04,27,03,09,6.30
2023,04,27,03,10,6.30
2023,04,27,03,11,6.30
2023,04,27,03,12,6.30
2023,04,27,03,13,6.30
2023,04,27,03,14,6.30
2023,04,27,03,15,6.30
2023,04,27,03,16,6.30
2023,04,27,03,17,6.20
2023,04,27,03,18,6.20
2023,04,27,03,19,6.20
2023,04,27,03,20,6.20
2023,04,27,03,21,6.20
2023,04,27,03,22,6.20
2023,04,27,03,23,6.20
2023,04,27,03,24,6.20
2023,04,27,03,25,6.20
2023,04,27,03,26,6.20
2023,04,27,03,27,6.10
2023,04,27,03,28,6.10
2023,04,27,03,29,6.10
2023,04,27,03,30,6.10
2023,04,27,03,31,6.10
2023,04,27,03,32,6.10
2023,04,27,03,33,6.10
2023,04,27,03,34,6.10
2023,04,27,03,35,6.00
2023,04,27,03,36,6.00
2023,04,27,03,37,6.00
2023,04,27,03,38,6.00
2023,04,27,03,39,6.10
2023,04,27,03,40,6.10
2023,04,27,03,41,6.10
2023,04,27,03,42,6.10
2023,04,27,03,43,6.00
2023,04,27,03,44,6.00
2023,04,27,03,45,6.00
2023,04,27,03,46,6.00
2023,04,27,03,47,6.00
2023,04,27,03,48,6.00
2023,04,27,03,49,6.00
2023,04,27,03,50,6.00
2023,04,27,03,51,5.90
2023,04,27,03,52,5.90
2023,04,27,03,53,5.90
2023,04,27,03,54,5.90
2023,04,27,03,55,5.90
2023,04,27,03,56,5.90
2023,04,27,03,57,5.90
2023,04,27,03,58,5.90
2023,04,27,03,59,5.90
2023,04,27,04,00,5.90
2023,04,27,04,01,5.90
2023,04,27,04,02,5.90
2023,04,27,04,03,5.90
2023,04,27,04,04,5.90
2023,04,27,04,05,5.90
2023,04,27,04,06,5.90
2023,04,27,04,07,5.90
2023,04,27,04,08,5.90
2023,04,27,04,09,5.90
2023,04,27,04,10,5.90
2023,04,27,04,11,5.90
2023,04,27,04,12,5.90
2023,04,27,04,13,5.90
2023,04,27,04,14,5.90
2023,04,27,04,15,5.90
2023,04,27,04,16,5.90
2023,04,27,04,17,5.90
2023,04,27,04,18,5.90
2023,04,27,04,19,5.80
2023,04,27,04,20,5.80
2023,04,27,04,21,5.80
2023,04,27,04,22,5.80
2023,04,27,04,23,5.80
2023,04,27,04,24,5.80
2023,04,27,04,25,5.80
2023,04,27,04,26,5.80
2023,04,27,04,27,5.80
2023,04,27,04,28,5.80
2023,04,27,04,29,5.80
2023,04,27,04,30,5.70
2023,04,27,04,31,5.70
2023,04,27,04,32,5.70
2023,04,27,04,33,5.70
2023,04,27,04,34,5.70
2023,04,27,04,35,5.70
2023,04,27,04,36,5.70
2023,04,27,04,37,5.70
2023,04,27,04,38,5.70
2023,04,27,04,39,5.70
2023,04,27,04,40,5.70
2023,04,27,04,41,5.70
2023,04,27,04,42,5.70
2023,04,27,04,43,5.70
2023,04,27,04,44,5.70
2023,04,27,04,45,5.70
2023,04,27,04,46,5.70
2023,04,27,04,47,5.70
2023,04,27,04,48,5.70
2023,04,27,04,49,5.70
2023,04,27,04,50,5.70
2023,04,27,04,51,5.70
2023,04,27,04,52,5.70
2023,04,27,04,53,5.70
2023,04,27,04,54,5.70
2023,04,27,04,55,5.60
2023,04,27,04,56,5.60
2023,04,27,04,57,5.60
2023,04,27,04,58,5.60
2023,04,27,04,59,5.60
2023,04,27,05,00,5.60
2023,04,27,05,01,5.60
2023,04,27,05,02,5.60
2023,04,27,05,03,5.60
2023,04,27,05,04,5.60
2023,04,27,05,05,5.60
2023,04,27,05,06,5.60
2023,04,27,05,07,5.60
2023,04,27,05,08,5.60
2023,04,27,05,09,5.60
2023,04,27,13,10,15.10
2023,04,27,13,11,15.10
2023,04,27,13,12,15.20
2023,04,27,13,13,15.20
2023,04,27,13,14,15.20
2023,04,27,13,15,15.20
2023,04,27,13,16,15.20
2023,04,27,13,17,15.30
2023,04,27,13,18,15.40
2023,04,27,13,19,15.40
2023,04,27,13,20,15.40
2023,04,27,13,21,15.50
2023,04,27,13,22,15.50
2023,04,27,13,23,15.60
2023,04,27,13,24,15.60
2023,04,27,13,25,15.60
2023,04,27,13,26,15.60
2023,04,27,13,27,15.70
2023,04,27,13,28,15.70
2023,04,27,13,29,15.70
2023,04,27,13,30,15.70
2023,04,27,13,31,15.70
2023,04,27,13,32,15.80
2023,04,27,13,33,15.70
2023,04,27,13,34,15.70
2023,04,27,13,35,15.60
2023,04,27,13,36,15.60
2023,04,27,13,37,15.70
2023,04,27,13,38,15.70
2023,04,27,13,39,15.70
2023,04,27,13,40,15.70
2023,04,27,13,41,15.70
2023,04,27,13,42,15.60
2023,04,27,13,43,15.70
2023,04,27,13,44,15.70
2023,04,27,13,45,15.70
2023,04,27,13,46,15.70
2023,04,27,13,47,15.80
2023,04,27,13,48,15.80
2023,04,27,13,49,15.80
2023,04,27,13,50,15.80
2023,04,27,13,51,15.90
2023,04,27,13,52,15.90
2023,04,27,13,53,15.90
2023,04,27,13,54,15.90
2023,04,27,13,55,15.90
2023,04,27,13,56,15.90
2023,04,27,13,57,15.90
2023,04,27,13,58,15.90
2023,04,27,13,59,16.00
2023,04,27,14,00,16.00
2023,04,27,14,01,16.10
2023,04,27,14,02,16.00
2023,04,27,14,03,16.00
2023,04,27,14,04,16.00
2023,04,27,14,05,16.00
2023,04,27,14,06,16.00
2023,04,27,14,07,15.90
2023,04,27,14,08,15.90
2023,04,27,14,09,16.00
2023,04,27,14,10,16.00
2023,04,27,14,11,16.10
2023,04,27,14,12,16.10
2023,04,27,14,13,16.20
2023,04,27,14,14,16.20
2023,04,27,14,15,16.30
2023,04,27,14,16,16.30
2023,04,27,14,17,16.30
2023,04,27,14,18,16.30
2023,04,27,14,19,16.30
2023,04,27,14,20,16.40
2023,04,27,14,21,16.60
2023,04,27,14,22,16.80
2023,04,27,14,23,16.90
2023,04,27,14,24,17.10
2023,04,27,14,25,17.20
2023,04,27,14,26,17.20
2023,04,27,14,27,17.10
2023,04,27,14,28,17.10
2023,04,27,14,29,17.10
2023,04,27,14,30,17.10
2023,04,27,14,31,17.00
2023,04,27,14,32,17.00
2023,04,27,14,33,17.00
2023,04,27,14,34,17.10
2023,04,27,14,35,17.10
2023,04,27,14,36,17.10
2023,04,27,14,37,17.10
2023,04,27,14,38,17.00
2023,04,27,14,39,17.00
2023,04,27,14,40,17.00
2023,04,27,14,41,17.20
2023,04,27,14,42,17.40
2023,04,27,14,43,17.50
2023,04,27,14,44,17.60
2023,04,27,14,45,17.60
2023,04,27,14,46,17.60
2023,04,27,14,47,17.50
2023,04,27,14,48,17.50
2023,04,27,14,49,17.40
2023,04,27,14,50,17.30
2023,04,27,14,51,17.20
2023,04,27,14,52,17.10
2023,04,27,14,53,17.00
2023,04,27,14,54,16.90
2023,04,27,14,55,16.90
2023,04,27,14,56,16.90
2023,04,27,14,57,16.90
2023,04,27,14,58,17.00
2023,04,27,14,59,17.00
2023,04,27,15,00,16.90
2023,04,27,15,01,17.00
2023,04,27,15,02,17.00
2023,04,27,15,03,17.00
2023,04,27,15,04,17.00
2023,04,27,15,05,17.10
2023,04,27,15,06,17.00
2023,04,27,15,07,17.00
2023,04,27,15,08,17.00
2023,04,27,15,09,17.00
2023,04,27,15,10,17.00
2023,04,27,15,11,17.00
2023,04,27,15,12,17.00
2023,04,27,15,13,16.90
2023,04,27,15,14,16.90
2023,04,27,15,15,16.90
2023,04,27,15,16,16.90
2023,04,27,15,17,16.90
2023,04,27,15,18,16.90
2023,04,27,15,19,16.90
2023,04,27,15,20,16.80
2023,04,27,15,21,16.80
2023,04,27,15,22,16.80
2023,04,27,15,23,16.80
2023,04,27,15,24,16.90
2023,04,27,15,25,16.90
2023,04,27,15,26,16.90
2023,04,27,15,27,16.90
2023,04,27,15,28,17.00
2023,04,27,15,29,17.00
2023,04,27,15,30,17.00
2023,04,27,15,31,16.90
2023,04,27,15,32,16.90
2023,04,27,15,33,16.90
2023,04,27,15,34,16.80
2023,04,27,15,35,16.90
2023,04,27,15,36,16.90
2023,04,27,15,37,16.90
2023,04,27,15,38,16.90
2023,04,27,15,39,16.90
2023,04,27,15,40,16.90
2023,04,27,15,41,16.90
2023,04,27,15,42,16.90
2023,04,27,15,43,16.90
2023,04,27,15,44,16.90
2023,04,27,15,45,16.90
2023,04,27,15,46,16.90
2023,04,27,15,47,16.90
2023,04,27,15,48,16.90
2023,04,27,15,49,16.90
2023,04,27,15,50,16.90
2023,04,27,15,51,16.90
2023,04,27,15,52,16.90
2023,04,27,15,53,16.90
2023,04,27,15,54,16.90
2023,04,27,15,55,16.90
2023,04,27,15,56,16.90
2023,04,27,15,57,16.90
2023,04,27,15,58,16.90
2023,04,27,15,59,16.90
2023,04,27,16,00,16.90
2023,04,27,16,01,16.90
2023,04,27,16,02,16.90
2023,04,27,16,03,16.90
2023,04,27,16,04,16.90
2023,04,27,16,05,16.90
2023,04,27,16,06,16.90
2023,04,27,16,07,16.90
2023,04,27,16,08,17.00
2023,04,27,16,09,17.00
2023,04,27,16,10,17.00
2023,04,27,16,11,17.00
2023,04,27,16,12,17.00
2023,04,27,16,13,17.00
2023,04,27,16,14,17.00
2023,04,27,16,15,17.00
2023,04,27,16,16,17.00
2023,04,27,16,17,17.00
2023,04,27,16,18,17.00
2023,04,27,16,19,17.00
2023,04,27,16,20,17.10
2023,04,27,16,21,17.10
2023,04,27,16,22,17.10
2023,04,27,16,23,17.10
2023,04,27,16,24,17.10
2023,04,27,16,25,17.10
2023,04,27,16,26,17.10
2023,04,27,16,27,17.10
2023,04,27,16,28,17.10
2023,04,27,16,29,17.10
2023,04,27,16,30,17.00
2023,04,27,16,31,17.00
2023,04,27,16,32,17.00
2023,04,27,16,33,17.00
2023,04,27,16,34,17.00
2023,04,27,16,35,17.00
2023,04,27,16,36,17.00
2023,04,27,16,37,17.00
2023,04,27,16,38,16.90
2023,04,27,16,39,16.90
2023,04,27,16,40,16.90
2023,04,27,16,41,17.00
2023,04,27,16,42,17.00
2023,04,27,16,43,17.00
2023,04,27,16,44,17.00
2023,04,27,16,45,17.10
2023,04,27,16,46,17.10
2023,04,27,16,47,17.10
2023,04,27,16,48,17.10
2023,04,27,16,49,17.10
2023,04,27,16,50,17.20
2023,04,27,16,51,17.20
2023,04,27,16,52,17.20
2023,04,27,16,53,17.20
2023,04,27,16,54,17.20
2023,04,27,16,55,17.20
2023,04,27,16,56,17.20
2023,04,27,16,57,17.20
2023,04,27,16,58,17.30
2023,04,27,16,59,17.30
2023,04,27,17,00,17.30
2023,04,27,17,01,17.30
2023,04,27,17,02,17.30
2023,04,27,17,03,17.30
2023,04,27,17,04,17.30
2023,04,27,17,05,17.20
2023,04,27,17,06,17.30
2023,04,27,17,07,17.30
2023,04,27,17,08,17.30
2023,04,27,17,09,17.30
2023,04,27,17,10,17.30
2023,04,27,17,11,17.30
2023,04,27,17,12,17.20
2023,04,27,17,13,17.20
2023,04,27,17,14,17.20
2023,04,27,17,15,17.20
2023,04,27,17,16,17.20
2023,04,27,17,17,17.20
2023,04,27,17,18,17.20
2023,04,27,17,19,17.20
2023,04,27,17,20,17.20
2023,04,27,17,21,17.20
2023,04,27,17,22,17.20
2023,04,27,17,23,17.20
2023,04,27,17,24,17.20
2023,04,27,17,25,17.30
2023,04,27,17,26,17.20
2023,04,27,17,27,17.20
2023,04,27,17,28,17.20
2023,04,27,17,29,17.20
2023,04,27,17,30,17.20
2023,04,27,17,31,17.20
2023,04,27,17,32,17.20
2023,04,27,17,33,17.20
2023,04,27,17,34,17.20
2023,04,27,17,35,17.20
2023,04,27,17,36,17.20
2023,04,27,17,37,17.20
2023,04,27,17,38,17.20
2023,04,27,17,39,17.20
2023,04,27,17,40,17.20
2023,04,27,17,41,17.20
2023,04,27,17,42,17.20
2023,04,27,17,43,17.20
2023,04,27,17,44,17.20
2023,04,27,17,45,17.20
2023,04,27,17,46,17.30
2023,04,27,17,47,17.30
2023,04,27,17,48,17.30
2023,04,27,17,49,17.30
2023,04,27,17,50,17.30
2023,04,27,17,51,17.30
2023,04,27,17,52,17.30
2023,04,27,17,53,17.30
2023,04,27,17,54,17.30
2023,04,27,17,55,17.30
2023,04,27,17,56,17.30
2023,04,27,17,57,17.30
2023,04,27,17,58,17.30
2023,04,27,17,59,17.40
2023,04,27,18,00,17.40
2023,04,27,18,01,17.40
2023,04,27,18,02,17.40
2023,04,27,18,03,17.40
2023,04,27,18,04,17.30
2023,04,27,18,05,17.30
2023,04,27,18,06,17.30
2023,04,27,18,07,17.30
2023,04,27,18,08,17.30
2023,04,27,18,09,17.30
2023,04,27,18,10,17.20
2023,04,27,18,11,17.20
2023,04,27,18,12,17.10
2023,04,27,18,13,17.10
2023,04,27,18,14,17.00
2023,04,27,18,15,17.00
2023,04,27,18,16,17.00
2023,04,27,18,17,17.00
2023,04,27,18,18,17.00
2023,04,27,18,19,16.90
2023,04,27,18,20,16.90
2023,04,27,18,21,16.90
2023,04,27,18,22,16.90
2023,04,27,18,23,16.90
2023,04,27,18,24,16.90
2023,04,27,18,25,16.90
2023,04,27,18,26,16.90
2023,04,27,18,27,16.80
2023,04,27,18,28,16.80
2023,04,27,18,29,16.80
2023,04,27,18,30,16.80
2023,04,27,18,31,16.80
2023,04,27,18,32,16.80
2023,04,27,18,33,16.80
2023,04,27,18,34,16.80
2023,04,27,18,35,16.80
2023,04,27,18,36,16.80
2023,04,27,18,37,16.80
2023,04,27,18,38,16.80
2023,04,27,18,39,16.80
2023,04,27,18,40,16.80
2023,04,27,18,41,16.80
2023,04,27,18,42,16.80
2023,04,27,18,43,16.80
2023,04,27,18,44,16.80
2023,04,27,18,45,16.80
2023,04,27,18,46,16.80
2023,04,27,18,47,16.70
2023,04,27,18,48,16.70
2023,04,27,18,49,16.70
2023,04,27,18,50,16.70
2023,04,27,18,51,16.70
2023,04,27,18,52,16.70
2023,04,27,18,53,16.70
2023,04,27,18,54,16.70
2023,04,27,18,55,16.70
2023,04,27,18,56,16.70
2023,04,27,18,57,16.70
2023,04,27,18,58,16.70
2023,04,27,18,59,16.70
2023,04,27,19,00,16.60
2023,04,27,19,01,16.60
2023,04,27,19,02,16.60
2023,04,27,19,03,16.60
2023,04,27,19,04,16.60
2023,04,27,19,05,16.60
2023,04,27,19,06,16.60
2023,04,27,19,07,16.50
2023,04,27,19,08,16.50
2023,04,27,19,09,16.50
2023,04,27,19,10,16.50
2023,04,27,19,11,16.50
2023,04,27,19,12,16.50
2023,04,27,19,13,16.50
2023,04,27,19,14,16.50
2023,04,27,19,15,16.50
2023,04,27,19,16,16.50
2023,04,27,19,17,16.50
2023,04,27,19,18,16.50
2023,04,27,19,19,16.40
2023,04,27,19,20,16.40
2023,04,27,19,21,16.40
2023,04,27,19,22,16.40
2023,04,27,19,23,16.40
2023,04,27,19,24,16.40
2023,04,27,19,25,16.30
2023,04,27,19,26,16.30
2023,04,27,19,27,16.30
2023,04,27,19,28,16.30
2023,04,27,19,29,16.20
2023,04,27,19,30,16.20
2023,04,27,19,31,16.20
2023,04,27,19,32,16.20
2023,04,27,19,33,16.10
2023,04,27,19,34,16.10
2023,04,27,19,35,16.00
2023,04,27,19,36,15.90
2023,04,27,19,37,15.90
2023,04,27,19,38,15.80
2023,04,27,19,39,15.80
2023,04,27,19,40,15.80
2023,04,27,19,41,15.70
2023,04,27,19,42,15.70
2023,04,27,19,43,15.70
2023,04,27,19,44,15.60
2023,04,27,19,45,15.60
2023,04,27,19,46,15.60
2023,04,27,19,47,15.50
2023,04,27,19,48,15.50
2023,04,27,19,49,15.40
2023,04,27,19,50,15.40
2023,04,27,19,51,15.40
2023,04,27,19,52,15.30
2023,04,27,19,53,15.20
2023,04,27,19,54,15.20
2023,04,27,19,55,15.10
2023,04,27,19,56,15.10
2023,04,27,19,57,15.00
2023,04,27,19,58,14.90
2023,04,27,19,59,14.90
2023,04,27,20,00,14.80
2023,04,27,20,01,14.80
2023,04,27,20,02,14.70
2023,04,27,20,03,14.60
2023,04,27,20,04,14.50
2023,04,27,20,05,14.50
2023,04,27,20,06,14.40
2023,04,27,20,07,14.30
2023,04,27,20,08,14.20
2023,04,27,20,09,14.20
2023,04,27,20,10,14.10
2023,04,27,20,11,14.00
2023,04,27,20,12,13.90
2023,04,27,20,13,13.90
2023,04,27,20,14,13.80
2023,04,27,20,15,13.80
2023,04,27,20,16,13.70
2023,04,27,20,17,13.60
2023,04,27,20,18,13.60
2023,04,27,20,19,13.50
2023,04,27,20,20,13.40
2023,04,27,20,21,13.40
2023,04,27,20,22,13.30
2023,04,27,20,23,13.30
2023,04,27,20,24,13.20
2023,04,27,20,25,13.20
2023,04,27,20,26,13.10
2023,04,27,20,27,13.10
2023,04,27,20,28,13.10
2023,04,27,20,29,13.00
2023,04,27,20,30,13.00
2023,04,27,20,31,12.90
2023,04,27,20,32,12.90
2023,04,27,20,33,12.80
2023,04,27,20,34,12.80
2023,04,27,20,35,12.80
2023,04,27,20,36,12.80
2023,04,27,20,37,12.70
2023,04,27,20,38,12.70
2023,04,27,20,39,12.70
2023,04,27,20,40,12.60
2023,04,27,20,41,12.60
2023,04,27,20,42,12.60
2023,04,27,20,43,12.50
2023,04,27,20,44,12.50
2023,04,27,20,45,12.40
2023,04,27,20,46,12.40
2023,04,27,20,47,12.30
2023,04,27,20,48,12.30
2023,04,27,20,49,12.20
2023,04,27,20,50,12.20
2023,04,27,20,51,12.10
2023,04,27,20,52,12.10
2023,04,27,20,53,12.00
2023,04,27,20,54,11.90
2023,04,27,20,55,11.90
2023,04,27,20,56,11.80
2023,04,27,20,57,11.70
2023,04,27,20,58,11.70
2023,04,27,20,59,11.70
2023,04,27,21,00,11.60
2023,04,27,21,01,11.60
2023,04,27,21,02,11.50
2023,04,27,21,03,11.50
2023,04,27,21,04,11.40
2023,04,27,21,05,11.40
2023,04,27,21,06,11.30
2023,04,27,21,07,11.30
2023,04,27,21,08,11.30
2023,04,27,21,09,11.20
2023,04,27,21,10,11.20
2023,04,27,21,11,11.20
2023,04,27,21,12,11.20
2023,04,27,21,13,11.10
2023,04,27,21,14,11.10
2023,04,27,21,15,11.10
2023,04,27,21,16,11.10
2023,04,27,21,17,11.10
2023,04,27,21,18,11.10
2023,04,27,21,19,11.00
2023,04,27,21,20,11.00
2023,04,27,21,21,10.90
2023,04,27,21,22,10.90
2023,04,27,21,23,10.90
2023,04,27,21,24,10.80
2023,04,27,21,25,10.80
2023,04,27,21,26,10.80
2023,04,27,21,27,10.70
2023,04,27,21,28,10.70
2023,04,27,21,29,10.70
2023,04,27,21,30,10.70
2023,04,27,21,31,10.70
2023,04,27,21,32,10.60
2023,04,27,21,33,10.60
2023,04,27,21,34,10.60
2023,04,27,21,35,10.50
2023,04,27,21,36,10.50
2023,04,27,21,37,10.40
2023,04,27,21,38,10.40
2023,04,27,21,39,10.40
2023,04,27,21,40,10.30
2023,04,27,21,41,10.30
2023,04,27,21,42,10.30
2023,04,27,21,43,10.20
2023,04,27,21,44,10.20
2023,04,27,21,45,10.20
2023,04,27,21,46,10.20
2023,04,27,21,47,10.10
2023,04,27,21,48,10.10
2023,04,27,21,49,10.10
2023,04,27,21,50,10.00
2023,04,27,21,51,10.00
2023,04,27,21,52,10.00
2023,04,27,21,53,9.90
2023,04,27,21,54,9.90
2023,04,27,21,55,9.90
2023,04,27,21,56,9.80
2023,04,27,21,57,9.80
2023,04,27,21,58,9.80
2023,04,27,21,59,9.80
2023,04,27,22,00,9.80
2023,04,27,22,01,9.70
2023,04,27,22,02,9.70
2023,04,27,22,03,9.70
2023,04,27,22,04,9.70
2023,04,27,22,05,9.60
2023,04,27,22,06,9.60
2023,04,27,22,07,9.60
2023,04,27,22,08,9.60
2023,04,27,22,09,9.60
2023,04,27,22,10,9.60
2023,04,27,22,11,9.50
2023,04,27,22,12,9.50
2023,04,27,22,13,9.50
2023,04,27,22,14,9.50
2023,04,27,22,15,9.40
2023,04,27,22,16,9.40
2023,04,27,22,17,9.40
2023,04,27,22,18,9.40
2023,04,27,22,19,9.40
2023,04,27,22,20,9.30
2023,04,27,22,21,9.30
2023,04,27,22,22,9.30
2023,04,27,22,23,9.30
2023,04,27,22,24,9.30
2023,04,27,22,25,9.30
2023,04,27,22,26,9.20
2023,04,27,22,27,9.20
2023,04,27,22,28,9.20
2023,04,27,22,29,9.20
2023,04,27,22,30,9.20
2023,04,27,22,31,9.20
2023,04,27,22,32,9.10
2023,04,27,22,33,9.10
2023,04,27,22,34,9.10
2023,04,27,22,35,9.10
2023,04,27,22,36,9.10
2023,04,27,22,37,9.10
2023,04,27,22,38,9.00
2023,04,27,22,39,9.00
2023,04,27,22,40,9.00
2023,04,27,22,41,8.90
2023,04,27,22,42,8.90
2023,04,27,22,43,8.90
2023,04,27,22,44,8.90
2023,04,27,22,45,8.90
2023,04,27,22,46,8.80
2023,04,27,22,47,8.80
2023,04,27,22,48,8.80
2023,04,27,22,49,8.80
2023,04,27,22,50,8.80
2023,04,27,22,51,8.80
2023,04,27,22,52,8.80
2023,04,27,22,53,8.80
2023,04,27,22,54,8.80
2023,04,27,22,55,8.80
2023,04,27,22,56,8.80
2023,04,27,22,57,8.80
2023,04,27,22,58,8.70
2023,04,27,22,59,8.70
2023,04,27,23,00,8.70
2023,04,27,23,01,8.70
2023,04,27,23,02,8.70
2023,04,27,23,03,8.70
2023,04,27,23,04,8.70
2023,04,27,23,05,8.70
2023,04,27,23,06,8.70
2023,04,27,23,07,8.60
2023,04,27,23,08,8.60
2023,04,27,23,09,8.60
2023,04,27,23,10,8.60
2023,04,27,23,11,8.60
2023,04,27,23,12,8.50
2023,04,27,23,13,8.50
2023,04,27,23,14,8.40
2023,04,27,23,15,8.40
2023,04,27,23,16,8.40
2023,04,27,23,17,8.40
2023,04,27,23,18,8.30
2023,04,27,23,19,8.30
2023,04,27,23,20,8.30
2023,04,27,23,21,8.30
2023,04,27,23,22,8.30
2023,04,27,23,23,8.30
2023,04,27,23,24,8.20
2023,04,27,23,25,8.20
2023,04,27,23,26,8.20
2023,04,27,23,27,8.20
2023,04,27,23,28,8.20
2023,04,27,23,29,8.20
2023,04,27,23,30,8.10
2023,04,27,23,31,8.10
2023,04,27,23,32,8.10
2023,04,27,23,33,8.10
2023,04,27,23,34,8.10
2023,04,27,23,35,8.10
2023,04,27,23,36,8.10
2023,04,27,23,37,8.10
2023,04,27,23,38,8.10
2023,04,27,23,39,8.00
2023,04,27,23,40,8.00
2023,04,27,23,41,8.00
2023,04,27,23,42,8.00
2023,04,27,23,43,8.00
2023,04,27,23,44,7.90
2023,04,27,23,45,7.90
2023,04,27,23,46,7.90
2023,04,27,23,47,7.90
2023,04,27,23,48,7.90
2023,04,27,23,49,7.90
2023,04,27,23,50,7.90
2023,04,27,23,51,7.90
2023,04,27,23,52,7.90
2023,04,27,23,53,7.90
2023,04,27,23,54,7.90
2023,04,27,23,55,7.90
2023,04,27,23,56,7.90
2023,04,27,23,57,7.80
2023,04,27,23,58,7.80
2023,04,27,23,59,7.80
